Weather History for Abu Dhabi International Airport, UAE

Change the Weather History Date:

Sunday, May 26, 2013

  Actual Average Record
Temperature  
Mean Temperature 90 °F -  
Max Temperature 104 °F 103 °F - ()
Min Temperature 75 °F 77 °F - ()
Cooling Degree Days 24    
Growing Degree Days 40 (Base 50)    
Moisture  
Dew Point 71 °F    
Average Humidity 63    
Maximum Humidity 89    
Minimum Humidity 10    
Precipitation  
Precipitation 0.00 in 0.00 in - ()
Sea Level Pressure  
Sea Level Pressure 29.59 in    
Wind  
Wind Speed 6 mph ()    
Max Wind Speed 18 mph    
Max Gust Speed -    
Visibility 5.0 miles    
Events      
T = Trace of Precipitation, MM = Missing Value Source: Averaged Metar Reports

Daily Weather History Graph

Daily Weather History Graph

Search for Another Location

Airport:

Trip Planner

Search our weather history database for the weather conditions in past years. The results will help you decide how hot, cold, wet, or windy it might be!

Date:

Astronomy

May. 26, 2013 Rise Set
Actual Time 5:33 AM GST 7:03 PM GST
Civil Twilight 5:08 AM GST 7:28 PM GST
Nautical Twilight 4:38 AM GST 7:58 PM GST
Astronomical Twilight 4:07 AM GST 8:29 PM GST
Moon 8:29 PM GST (5/26) 6:36 AM GST (5/26)
Length of Visible Light 14h 19m
Length of Day
13h 29m
Full, 98% of the Moon is Illuminated
May 26
Full
May 31
Last Quarter
Jun 8
New
Jun 16
First Quarter
Jun 23
Full

Hourly Weather History & Observations

Time (GST) Temp. Heat Index Dew Point Humidity Pressure Visibility Wind Dir Wind Speed Gust Speed Precip Events Conditions
12:00 AM 80.6 °F 86.2 °F 75.2 °F 84% 29.62 in - ENE 4.6 mph - N/A   Clear
1:00 AM 80 °F - 76 °F 82% 29.61 in 6 mi ENE 3.5 mph - -  
1:00 AM 80.6 °F 86.2 °F 75.2 °F 84% 29.59 in - ENE 3.5 mph - N/A   Clear
2:00 AM 78.8 °F - 75.2 °F 89% 29.56 in - SSW 3.5 mph - N/A   Clear
3:00 AM 77.0 °F - 73.4 °F 89% 29.56 in - South 3.5 mph - N/A   Clear
4:00 AM 78 °F - 73 °F 82% 29.59 in 6 mi ESE 3.5 mph - -  
4:00 AM 77.0 °F - 73.4 °F 89% 29.59 in - ESE 3.5 mph - N/A   Clear
5:00 AM 75.2 °F - 71.6 °F 89% 29.59 in - Variable 1.2 mph - N/A   Clear
6:00 AM 75.2 °F - 71.6 °F 89% 29.59 in 3.1 mi ENE 3.5 mph - N/A   Haze
7:00 AM 77 °F - 72 °F 80% 29.63 in 3 mi ESE 3.5 mph - -   Haze
7:00 AM 77.0 °F - 71.6 °F 83% 29.62 in 3.1 mi ESE 3.5 mph - N/A   Haze
8:00 AM 80.6 °F 85.4 °F 73.4 °F 79% 29.65 in 5.0 mi NNE 2.3 mph - N/A   Unknown
9:00 AM 86.0 °F 90.4 °F 69.8 °F 58% 29.65 in - North 5.8 mph - N/A   Clear
10:00 AM 91.4 °F 94.0 °F 66.2 °F 43% 29.65 in - East 4.6 mph - N/A   Clear
11:00 AM 95.0 °F 94.4 °F 59.0 °F 30% 29.65 in - East 5.8 mph - N/A   Clear
12:00 PM 100.4 °F 98.4 °F 53.6 °F 21% 29.62 in - East 4.6 mph - N/A   Clear
1:00 PM 103 °F - 50 °F 10% 29.61 in 6 mi East 6.9 mph - -  
1:00 PM 102.2 °F - 50.0 °F 17% 29.59 in - East 6.9 mph - N/A   Clear
2:00 PM 102.2 °F 106.9 °F 66.2 °F 31% 29.59 in - NW 9.2 mph - N/A   Clear
3:00 PM 95.0 °F 107.4 °F 75.2 °F 53% 29.56 in - NW 16.1 mph - N/A   Clear
4:00 PM 94 °F - 77 °F 49% 29.57 in 6 mi NNW 18.4 mph - -  
4:00 PM 95.0 °F 109.7 °F 77.0 °F 56% 29.56 in - NNW 18.4 mph - N/A   Clear
5:00 PM 95.0 °F 101.3 °F 69.8 °F 44% 29.56 in - NNW 17.3 mph - N/A   Clear
6:00 PM 93.2 °F 100.5 °F 71.6 °F 49% 29.56 in - North 16.1 mph - N/A   Clear
7:00 PM 89 °F - 75 °F 55% 29.57 in 6 mi NNW 16.1 mph - -  
7:00 PM 89.6 °F 99.8 °F 75.2 °F 62% 29.56 in - NNW 16.1 mph - N/A   Clear
8:00 PM 87.8 °F 97.6 °F 75.2 °F 66% 29.56 in - NNW 10.4 mph - N/A   Clear
9:00 PM 87.8 °F 97.6 °F 75.2 °F 66% 29.59 in - North 9.2 mph - N/A   Clear
10:00 PM 86 °F - 77 °F 68% 29.61 in 6 mi WNW 6.9 mph - -  
10:00 PM 86.0 °F 96.9 °F 77.0 °F 74% 29.59 in - WNW 6.9 mph - N/A   Clear
11:00 PM 86.0 °F 96.9 °F 77.0 °F 74% 29.59 in - North 8.1 mph - N/A   Clear